Location: ??????
(41.3164°N, 22.6615°E)
Time: 17:08:00
(UTC+00:00)

Cosmos 1300 - Pass Details

Date: 30 May 2022
Orbit: 506 x 508 km, 82.5° (Epoch: 01 July)

Event Time Altitude Azimuth Distance (km) Brightness Sun altitude
Rises 23:30:41 0° 341° (NNW) 2,618 7.1 -25.1°
Reaches altitude 10° 23:32:59 10° 330° (NNW) 1,728 5.9 -25.0°
Enters shadow 23:34:55 23° 306° (NW) 1,124 4.5 -24.9°
